User: anonymous   Login
Location: Cardiff
(53.7833°N, 113.6000°W)
Time: 16:55:48
(UTC+00:00)
Language:

NANOSAT C BR1 - Orbit

View from above orbital plane
View from above orbital plane
View from above satellite
View from above satellite

Ground track
Ground track

The orbit data is extracted from the following two-line orbital elements,

1 40024U 14033Q   24148.90472620  .00007651  00000-0  57382-3 0  9997
2 40024  98.0637 120.1754 0004422 216.3513 143.7411 15.02952425540205
Epoch (UTC): 27 May 2024 21:42:48
Eccentricity: 0.0004422
inclination: 98.0637°
perigee height: 555 km
apogee height: 561 km
right ascension of ascending node: 120.1754°
argument of perigee: 216.3513°
revolutions per day: 15.02952425
mean anomaly at epoch: 143.7411°
orbit number at epoch: 54020

The dashed part of the orbit path shows where the satellite is in the earth's shadow,  

DLR